SCP
-1 -1 -1 -2 -1 -0 -0 -0 -0 -0 -0 -0 -0 -0 -0 -0 0 0 0 0 0 0 0 0 -0 -0 -0 0 0 0 0 0 0 0 0 0 0 0 0 0 -0 0 0
-1 -1 -1 -1 -1 -1 -0 -0 -0 -0 -0 -0 -0 -0 -0 0 0 0 0 0 0 0 0 0 0 0 0 0 0 0 -0 -0 -0 0 0 0 0 0 0 0 0 0 0
-0 -0 -0 -1 -1 -1 -0 -0 -0 -0 -0 -0 -0 -0 0 0 0 0 0 0 0 0 0 0 0 0 0 -0 0 -0 -0 -0 -0 -0 0 0 0 0 0 0 0 0 0
-0 -0 -0 -0 -1 -1 -0 -0 -0 -0 -0 -0 -0 -0 0 0 0 0 0 0 0 0 0 0 0 0 -0 0 0 -0 -0 -0 -0 0 0 0 0 0 0 0 0 0 0
-0 0 -0 -0 -0 -0 -0 -0 -0 -0 -0 -0 -0 -0 0 0 0 0 0 0 0 0 0 0 0 0 0 0 0 -0 -0 -0 -0 -0 0 -0 0 0 0 0 0 0 0
0 0 0 0 0 0 0 -0 -0 0 0 -0 -0 -0 -0 -0 -0 -0 -0 -0 -0 0 0 0 0 0 0 -0 -0 -0 -0 -0 -0 -0 -0 0 0 0 0 0 0 0 0
0 0 0 0 0 0 0 0 0 0 0 0 0 0 -0 -0 -0 -0 -0 -0 -0 -0 -0 -0 -0 -0 -0 -0 -0 -0 -0 -0 0 -0 -0 0 0 0 0 0 0 0 0
0 1 0 1 1 0 0 0 0 0 0 0 0 0 -0 -0 -0 -0 -0 -0 -0 -0 -0 -0 -0 -0 -0 -0 -0 -0 -0 -0 0 -0 -0 0 0 0 0 0 0 0 0
0 1 1 1 1 1 1 1 1 1 1 0 0 0 0 -0 -0 -0 -0 -0 -0 -0 -0 -0 -0 -0 -0 -0 -0 -0 -0 -0 -0 0 0 0 0 0 0 0 0 0 0
0 1 1 1 0 1 1 1 1 1 1 1 1 0 0 0 -0 -0 -0 -0 -0 -0 -0 -0 -0 -0 -0 -0 -0 -0 -0 -0 -0 0 0 0 0 0 0 0 0 0 0
0 1 1 0 0 0 0 1 1 1 1 1 1 1 0 0 -0 -0 -0 0 0 0 0 0 0 0 -0 -0 0 0 0 0 0 0 0 0 0 0 0 0 0 0 0
0 0 1 0 0 0 0 1 1 1 1 1 1 1 0 0 0 -0 0 0 0 0 0 0 0 0 0 -0 0 0 0 0 0 0 0 0 0 0 0 0 0 0 0
0 1 2 2 1 0 -0 2 1 1 1 1 1 1 1 0 0 0 0 0 0 0 0 0 0 0 0 0 0 0 0 0 0 0 0 0 0 0 0 0 0 0 0
0 0 2 3 3 2 1 2 2 1 1 1 1 2 2 1 1 1 0 0 0 0 0 0 0 0 0 0 0 0 0 0 -0 0 0 0 0 0 0 0 0 0 0
0 0 2 4 4 4 2 2 2 1 1 1 1 1 1 1 2 1 0 1 0 0 0 0 0 0 0 0 0 0 0 0 0 0 0 0 0 0 0 0 0 0 0
0 0 0 5 7 6 4 3 8 5 1 2 1 1 2 2 1 2 3 1 1 0 0 0 0 0 1 0 0 0 1 1 1 1 0 0 0 0 0 1 0 0 0
0 0 1 1 7 6 7 5 5 8 5 4 2 2 2 2 3 2 2 2 1 1 0 1 1 2 1 1 1 1 1 1 1 1 1 1 1 1 1 1 1 1 0
0 0 0 0 2 7 6 7 5 4 5 4 3 4 4 2 4 5 4 2 3 4 3 3 2 2 1 1 1 1 1 1 1 2 2 1 1 1 1 1 1 1 1
0 0 0 1 1 4 4 5 5 4 5 4 4 3 3 3 3 6 2 3 3 5 6 3 3 2 1 1 1 2 2 2 2 2 1 1 1 1 1 2 1 1 1
0 0 0 0 0 1 2 5 6 6 4 4 4 2 4 4 3 3 4 3 4 3 2 3 2 1 1 2 1 1 1 2 2 2 2 1 2 2 2 3 2 1 1
0 0 1 1 1 2 2 4 5 5 6 6 4 3 5 5 4 3 3 2 3 2 2 2 2 2 2 1 3 3 2 4 3 2 3 2 2 3 3 4 6 4 3
0 0 0 1 1 1 1 1 4 5 4 5 5 5 4 5 6 6 3 3 2 3 2 2 2 2 3 2 2 3 3 2 2 5 4 4 3 3 5 5 4 3 5
0 0 0 0 0 2 1 1 1 1 4 5 4 5 5 4 6 7 6 4 4 4 3 3 4 3 3 5 3 5 4 2 4 7 7 4 3 4 5 3 4 4 4
0 0 0 0 1 0 1 1 1 1 1 4 5 5 6 5 4 6 8 7 4 7 6 5 5 6 7 6 8 5 3 8 5 5 7 4 3 5 4 7 4 1 0
0 0 0 0 0 0 1 1 1 0 0 1 1 3 5 9 6 6 8 8 8 9 8 6 7 9 10 7 7 5 4 7 6 4 3 5 5 3 4 2 1 0 0
0 0 0 0 0 0 0 1 2 2 1 1 1 3 2 6 11 7 7 10 11 9 7 6 7 9 9 8 7 7 6 6 4 5 4 3 3 2 2 1 0 0 0
Wind_Speed_500mb
32 44 41 42 43 42 38 39 35 33 33 32 27 22 21 22 26 29 31 31 30 27 24 21 18 18 20 21 23 22 22 22 22 23 24 23 23 20 18 17 18 15 14
36 46 43 42 44 44 40 39 33 31 31 30 25 23 24 25 28 30 31 30 27 24 21 18 17 18 20 21 21 19 20 21 22 20 23 28 31 20 16 15 15 12 16
39 46 45 43 43 44 41 37 33 30 29 27 23 21 25 26 28 28 28 26 23 19 17 16 17 17 19 19 17 16 17 21 30 30 24 23 22 26 18 15 14 14 16
37 45 45 45 43 43 40 37 33 32 29 27 22 20 22 24 25 25 25 22 20 17 16 16 16 16 16 16 14 13 14 18 23 24 28 15 11 22 17 13 14 14 11
30 44 44 45 44 42 38 36 33 30 30 29 24 21 21 21 22 22 22 20 18 17 16 15 14 14 13 11 10 9 10 15 21 21 27 3 12 12 20 14 10 12 14
30 34 44 43 44 42 37 34 31 32 30 30 26 21 20 21 21 20 19 18 17 16 15 14 13 12 11 9 7 6 6 10 16 12 15 11 12 16 18 12 12 11 11
24 31 37 41 42 41 39 35 33 30 32 32 31 25 23 22 22 22 22 20 17 16 15 14 12 11 10 8 6 4 3 5 10 19 14 17 17 21 16 12 10 10 9
25 30 19 38 41 41 39 36 34 32 33 36 35 31 26 24 24 23 23 23 21 18 16 14 13 11 9 7 5 3 2 2 15 13 6 13 22 20 16 14 13 11 11
22 21 19 39 42 41 40 38 36 35 35 38 38 34 29 25 26 27 26 26 24 21 19 17 15 13 10 8 6 6 5 3 1 9 7 23 21 24 18 16 16 15 14
23 22 21 37 43 43 42 40 38 37 39 40 40 38 34 30 29 30 30 30 27 24 22 20 18 16 14 11 8 6 9 9 2 4 3 21 21 23 16 15 16 16 16
25 27 17 15 39 44 42 42 41 40 41 43 45 44 41 38 34 34 34 33 30 27 25 23 21 19 16 12 7 5 13 10 9 9 8 21 27 24 16 14 15 16 16
27 27 28 22 27 27 33 37 45 44 46 48 51 51 50 45 43 39 39 39 34 31 29 27 25 23 19 15 15 11 19 4 7 5 22 26 23 17 14 12 13 14 14
28 36 39 34 32 28 34 46 35 49 52 53 54 56 54 51 45 37 36 41 39 36 34 30 28 26 22 17 3 25 16 9 5 15 23 27 26 19 14 13 14 15 16
28 28 43 41 41 42 36 49 45 37 57 58 59 60 58 56 47 46 45 43 40 44 41 37 32 27 22 15 11 29 23 21 24 17 22 22 29 22 17 14 15 14 16
32 19 41 41 45 48 45 48 48 43 44 47 53 61 65 61 61 56 49 44 40 41 46 40 33 20 22 22 29 21 30 24 23 27 24 25 27 25 23 19 17 15 15
26 31 19 42 43 46 52 56 52 53 47 55 51 54 60 69 68 63 66 59 49 44 42 30 36 33 38 37 25 22 28 28 30 26 25 26 29 24 25 24 17 17 18
19 22 24 20 49 60 59 55 60 61 55 57 61 61 62 63 76 75 75 70 63 54 45 44 35 38 41 37 29 28 30 33 31 29 30 26 22 26 27 20 19 19 17
18 19 19 23 18 50 54 60 55 72 68 66 61 66 68 66 70 73 74 75 69 57 54 52 52 56 53 42 33 26 30 27 21 27 31 36 22 29 27 23 22 21 9
25 22 25 34 38 17 47 53 54 54 64 65 70 61 75 78 68 79 82 81 75 77 74 70 66 64 55 37 40 37 43 41 36 37 35 27 29 40 40 32 30 25 17
18 16 18 28 35 37 36 37 50 52 53 64 64 69 64 73 75 72 89 88 84 82 79 74 71 60 52 46 45 44 47 46 41 34 34 37 45 40 32 39 38 36 35
16 14 15 22 29 38 38 40 50 58 61 65 68 74 68 78 83 81 81 89 79 86 91 90 86 76 63 58 55 51 55 53 57 50 40 35 44 39 37 54 51 32 35
17 24 30 32 35 42 45 44 42 51 56 65 62 74 81 78 80 88 84 83 90 89 94 93 88 78 73 66 73 65 59 69 69 59 41 41 40 41 49 52 60 38 30
24 27 36 39 44 37 39 41 49 57 59 62 60 68 74 83 83 88 91 86 84 93 109 110 99 96 87 83 84 59 24 32 38 49 52 46 46 50 50 53 58 47 34
23 27 35 36 34 34 38 46 48 52 59 50 72 68 72 79 88 90 91 96 93 98 107 104 104 100 92 89 81 78 65 28 19 19 42 44 44 49 53 54 57 62 60
29 35 33 34 42 49 45 47 46 58 68 64 70 63 82 81 90 93 101 111 111 100 108 114 98 111 104 94 87 77 72 71 64 49 29 40 46 54 64 65 65 67 64
31 32 39 42 40 33 43 49 50 55 64 70 75 63 79 74 90 97 101 114 117 116 110 106 104 101 106 108 85 81 74 72 61 71 65 53 48 56 64 62 73 74 62
Wind_Direction_500mb
160 156 155 156 155 154 148 148 145 143 140 138 134 134 136 132 130 132 134 135 134 133 132 129 124 118 120 125 122 116 108 98 90 83 75 66 62 67 71 62 69 50 51
156 155 155 159 158 157 154 155 152 149 147 143 137 133 137 136 133 134 137 134 134 133 133 133 127 123 124 123 120 114 104 91 78 70 63 64 37 44 57 62 62 53 55
160 154 156 161 162 161 160 160 160 156 153 150 142 139 142 144 142 144 142 140 138 139 141 139 133 133 131 129 127 118 107 91 84 77 63 48 1 17 34 49 53 54 57
155 157 159 162 165 167 167 168 168 166 162 160 152 147 149 152 152 154 150 148 148 149 149 144 142 139 140 141 132 123 111 101 95 71 58 26 292 329 7 32 55 54 37
159 162 162 165 168 172 174 176 177 177 174 172 166 159 159 163 165 166 164 163 163 161 158 153 148 147 146 140 132 121 102 97 98 73 61 311 294 305 337 355 11 43 44
153 164 165 170 172 175 178 181 188 186 187 185 180 172 171 174 176 179 178 179 179 173 171 164 160 157 152 151 145 133 120 109 119 98 70 325 295 307 316 333 351 13 24
157 181 173 174 176 179 182 185 189 200 197 197 194 188 183 187 188 189 189 192 193 188 184 176 174 172 170 169 170 172 163 141 147 67 60 310 300 304 314 314 325 341 347
164 194 185 183 182 184 186 189 192 197 209 205 205 203 198 197 200 204 203 201 199 197 196 191 188 189 185 191 205 214 228 172 148 110 77 268 283 300 314 314 317 318 323
167 206 208 193 189 191 191 193 195 197 201 210 211 214 215 211 211 213 213 211 207 205 205 205 202 201 205 207 232 257 267 262 143 135 114 272 292 307 309 308 314 320 324
165 195 246 195 193 194 196 197 199 199 201 205 213 218 226 229 226 222 220 217 215 214 214 214 218 219 219 220 231 270 289 285 130 192 159 264 288 313 311 313 315 321 326
169 185 205 211 198 199 204 203 203 203 206 210 212 219 223 232 237 236 230 226 222 220 223 227 229 232 236 239 243 323 326 306 233 53 316 270 284 302 306 314 315 317 325
186 188 204 203 212 208 197 217 210 209 209 212 215 219 223 226 237 240 237 233 230 225 225 231 236 240 242 251 243 319 344 10 90 34 256 269 288 298 299 307 317 314 315
217 196 201 213 213 218 191 228 224 220 216 216 221 225 225 225 224 232 231 231 230 231 234 235 241 246 252 256 280 294 304 322 355 239 252 268 287 294 294 310 316 313 306
261 240 197 210 221 221 198 221 235 236 221 221 221 225 228 221 220 218 225 232 233 232 232 234 235 246 254 259 223 249 267 260 224 250 256 263 281 283 289 292 301 305 299
265 260 206 213 226 228 206 206 223 239 223 227 228 223 224 224 216 210 223 222 238 233 227 231 234 239 266 257 247 245 235 228 226 239 233 258 280 291 285 278 286 294 288
259 256 255 216 219 234 233 205 212 228 232 227 230 230 226 224 220 217 212 213 217 229 229 230 227 213 227 240 242 253 233 235 233 246 232 253 270 294 300 277 268 274 279
252 261 268 235 228 231 242 238 217 213 223 219 227 232 239 229 221 214 220 217 204 222 214 214 220 223 225 239 224 232 247 243 239 246 261 253 250 280 288 266 255 250 256
282 264 264 241 246 240 242 252 247 228 223 224 225 226 235 239 227 216 220 220 210 207 211 211 210 212 227 231 235 238 247 253 241 251 248 267 245 260 259 259 244 235 222
266 262 264 245 244 238 242 250 252 249 236 235 228 235 240 242 236 225 223 225 219 210 212 209 216 223 225 227 230 225 235 233 234 234 251 262 255 257 252 223 242 219 239
246 252 257 284 275 256 236 254 245 247 250 238 234 227 234 240 240 234 231 226 224 219 216 220 221 229 230 226 229 225 237 242 240 240 244 255 244 251 245 220 229 234 257
229 252 294 295 297 283 258 251 256 250 252 247 240 230 230 238 242 242 240 235 226 229 231 231 234 225 220 226 222 230 227 229 231 232 245 259 255 236 244 225 230 249 248
311 305 305 302 298 295 284 255 245 251 254 254 252 243 231 231 242 246 246 240 233 226 232 233 229 227 230 225 219 222 232 233 238 234 247 252 254 224 236 239 234 243 218
310 305 302 298 293 284 278 281 263 248 249 250 247 247 240 234 235 240 244 238 240 228 233 237 233 225 225 226 223 211 214 233 239 241 249 245 239 226 226 231 237 242 249
303 295 297 287 297 301 293 285 276 266 258 253 250 245 248 240 234 235 239 243 240 233 228 234 234 230 226 223 216 224 224 227 233 204 223 238 238 229 237 233 237 241 247
299 296 298 291 285 290 299 286 285 274 267 264 263 253 244 244 240 233 234 238 243 235 236 231 233 230 225 223 224 225 227 237 238 241 229 231 238 236 233 239 237 251 260
291 300 298 302 301 286 293 293 291 286 277 273 257 259 255 249 243 237 233 237 242 242 241 233 230 234 227 228 218 225 227 222 236 243 245 239 242 251 248 256 255 262 272
Wind_Speed_850mb
32 44 41 42 43 42 38 39 35 33 33 32 27 22 21 22 26 29 31 31 30 27 24 21 18 18 20 21 23 22 22 22 22 23 24 23 23 20 18 17 18 15 14
36 46 43 42 44 44 40 39 33 31 31 30 25 23 24 25 28 30 31 30 27 24 21 18 17 18 20 21 21 19 20 21 22 20 23 28 31 20 16 15 15 12 16
39 46 45 43 43 44 41 37 33 30 29 27 23 21 25 26 28 28 28 26 23 19 17 16 17 17 19 19 17 16 17 21 30 30 24 23 22 26 18 15 14 14 16
37 45 45 45 43 43 40 37 33 32 29 27 22 20 22 24 25 25 25 22 20 17 16 16 16 16 16 16 14 13 14 18 23 24 28 15 11 22 17 13 14 14 11
30 44 44 45 44 42 38 36 33 30 30 29 24 21 21 21 22 22 22 20 18 17 16 15 14 14 13 11 10 9 10 15 21 21 27 3 12 12 20 14 10 12 14
30 34 44 43 44 42 37 34 31 32 30 30 26 21 20 21 21 20 19 18 17 16 15 14 13 12 11 9 7 6 6 10 16 12 15 11 12 16 18 12 12 11 11
24 31 37 41 42 41 39 35 33 30 32 32 31 25 23 22 22 22 22 20 17 16 15 14 12 11 10 8 6 4 3 5 10 19 14 17 17 21 16 12 10 10 9
25 30 19 38 41 41 39 36 34 32 33 36 35 31 26 24 24 23 23 23 21 18 16 14 13 11 9 7 5 3 2 2 15 13 6 13 22 20 16 14 13 11 11
22 21 19 39 42 41 40 38 36 35 35 38 38 34 29 25 26 27 26 26 24 21 19 17 15 13 10 8 6 6 5 3 1 9 7 23 21 24 18 16 16 15 14
23 22 21 37 43 43 42 40 38 37 39 40 40 38 34 30 29 30 30 30 27 24 22 20 18 16 14 11 8 6 9 9 2 4 3 21 21 23 16 15 16 16 16
25 27 17 15 39 44 42 42 41 40 41 43 45 44 41 38 34 34 34 33 30 27 25 23 21 19 16 12 7 5 13 10 9 9 8 21 27 24 16 14 15 16 16
27 27 28 22 27 27 33 37 45 44 46 48 51 51 50 45 43 39 39 39 34 31 29 27 25 23 19 15 15 11 19 4 7 5 22 26 23 17 14 12 13 14 14
28 36 39 34 32 28 34 46 35 49 52 53 54 56 54 51 45 37 36 41 39 36 34 30 28 26 22 17 3 25 16 9 5 15 23 27 26 19 14 13 14 15 16
28 28 43 41 41 42 36 49 45 37 57 58 59 60 58 56 47 46 45 43 40 44 41 37 32 27 22 15 11 29 23 21 24 17 22 22 29 22 17 14 15 14 16
32 19 41 41 45 48 45 48 48 43 44 47 53 61 65 61 61 56 49 44 40 41 46 40 33 20 22 22 29 21 30 24 23 27 24 25 27 25 23 19 17 15 15
26 31 19 42 43 46 52 56 52 53 47 55 51 54 60 69 68 63 66 59 49 44 42 30 36 33 38 37 25 22 28 28 30 26 25 26 29 24 25 24 17 17 18
19 22 24 20 49 60 59 55 60 61 55 57 61 61 62 63 76 75 75 70 63 54 45 44 35 38 41 37 29 28 30 33 31 29 30 26 22 26 27 20 19 19 17
18 19 19 23 18 50 54 60 55 72 68 66 61 66 68 66 70 73 74 75 69 57 54 52 52 56 53 42 33 26 30 27 21 27 31 36 22 29 27 23 22 21 9
25 22 25 34 38 17 47 53 54 54 64 65 70 61 75 78 68 79 82 81 75 77 74 70 66 64 55 37 40 37 43 41 36 37 35 27 29 40 40 32 30 25 17
18 16 18 28 35 37 36 37 50 52 53 64 64 69 64 73 75 72 89 88 84 82 79 74 71 60 52 46 45 44 47 46 41 34 34 37 45 40 32 39 38 36 35
16 14 15 22 29 38 38 40 50 58 61 65 68 74 68 78 83 81 81 89 79 86 91 90 86 76 63 58 55 51 55 53 57 50 40 35 44 39 37 54 51 32 35
17 24 30 32 35 42 45 44 42 51 56 65 62 74 81 78 80 88 84 83 90 89 94 93 88 78 73 66 73 65 59 69 69 59 41 41 40 41 49 52 60 38 30
24 27 36 39 44 37 39 41 49 57 59 62 60 68 74 83 83 88 91 86 84 93 109 110 99 96 87 83 84 59 24 32 38 49 52 46 46 50 50 53 58 47 34
23 27 35 36 34 34 38 46 48 52 59 50 72 68 72 79 88 90 91 96 93 98 107 104 104 100 92 89 81 78 65 28 19 19 42 44 44 49 53 54 57 62 60
29 35 33 34 42 49 45 47 46 58 68 64 70 63 82 81 90 93 101 111 111 100 108 114 98 111 104 94 87 77 72 71 64 49 29 40 46 54 64 65 65 67 64
31 32 39 42 40 33 43 49 50 55 64 70 75 63 79 74 90 97 101 114 117 116 110 106 104 101 106 108 85 81 74 72 61 71 65 53 48 56 64 62 73 74 62
Wind_Direction_850mb
160 156 155 156 155 154 148 148 145 143 140 138 134 134 136 132 130 132 134 135 134 133 132 129 124 118 120 125 122 116 108 98 90 83 75 66 62 67 71 62 69 50 51
156 155 155 159 158 157 154 155 152 149 147 143 137 133 137 136 133 134 137 134 134 133 133 133 127 123 124 123 120 114 104 91 78 70 63 64 37 44 57 62 62 53 55
160 154 156 161 162 161 160 160 160 156 153 150 142 139 142 144 142 144 142 140 138 139 141 139 133 133 131 129 127 118 107 91 84 77 63 48 1 17 34 49 53 54 57
155 157 159 162 165 167 167 168 168 166 162 160 152 147 149 152 152 154 150 148 148 149 149 144 142 139 140 141 132 123 111 101 95 71 58 26 292 329 7 32 55 54 37
159 162 162 165 168 172 174 176 177 177 174 172 166 159 159 163 165 166 164 163 163 161 158 153 148 147 146 140 132 121 102 97 98 73 61 311 294 305 337 355 11 43 44
153 164 165 170 172 175 178 181 188 186 187 185 180 172 171 174 176 179 178 179 179 173 171 164 160 157 152 151 145 133 120 109 119 98 70 325 295 307 316 333 351 13 24
157 181 173 174 176 179 182 185 189 200 197 197 194 188 183 187 188 189 189 192 193 188 184 176 174 172 170 169 170 172 163 141 147 67 60 310 300 304 314 314 325 341 347
164 194 185 183 182 184 186 189 192 197 209 205 205 203 198 197 200 204 203 201 199 197 196 191 188 189 185 191 205 214 228 172 148 110 77 268 283 300 314 314 317 318 323
167 206 208 193 189 191 191 193 195 197 201 210 211 214 215 211 211 213 213 211 207 205 205 205 202 201 205 207 232 257 267 262 143 135 114 272 292 307 309 308 314 320 324
165 195 246 195 193 194 196 197 199 199 201 205 213 218 226 229 226 222 220 217 215 214 214 214 218 219 219 220 231 270 289 285 130 192 159 264 288 313 311 313 315 321 326
169 185 205 211 198 199 204 203 203 203 206 210 212 219 223 232 237 236 230 226 222 220 223 227 229 232 236 239 243 323 326 306 233 53 316 270 284 302 306 314 315 317 325
186 188 204 203 212 208 197 217 210 209 209 212 215 219 223 226 237 240 237 233 230 225 225 231 236 240 242 251 243 319 344 10 90 34 256 269 288 298 299 307 317 314 315
217 196 201 213 213 218 191 228 224 220 216 216 221 225 225 225 224 232 231 231 230 231 234 235 241 246 252 256 280 294 304 322 355 239 252 268 287 294 294 310 316 313 306
261 240 197 210 221 221 198 221 235 236 221 221 221 225 228 221 220 218 225 232 233 232 232 234 235 246 254 259 223 249 267 260 224 250 256 263 281 283 289 292 301 305 299
265 260 206 213 226 228 206 206 223 239 223 227 228 223 224 224 216 210 223 222 238 233 227 231 234 239 266 257 247 245 235 228 226 239 233 258 280 291 285 278 286 294 288
259 256 255 216 219 234 233 205 212 228 232 227 230 230 226 224 220 217 212 213 217 229 229 230 227 213 227 240 242 253 233 235 233 246 232 253 270 294 300 277 268 274 279
252 261 268 235 228 231 242 238 217 213 223 219 227 232 239 229 221 214 220 217 204 222 214 214 220 223 225 239 224 232 247 243 239 246 261 253 250 280 288 266 255 250 256
282 264 264 241 246 240 242 252 247 228 223 224 225 226 235 239 227 216 220 220 210 207 211 211 210 212 227 231 235 238 247 253 241 251 248 267 245 260 259 259 244 235 222
266 262 264 245 244 238 242 250 252 249 236 235 228 235 240 242 236 225 223 225 219 210 212 209 216 223 225 227 230 225 235 233 234 234 251 262 255 257 252 223 242 219 239
246 252 257 284 275 256 236 254 245 247 250 238 234 227 234 240 240 234 231 226 224 219 216 220 221 229 230 226 229 225 237 242 240 240 244 255 244 251 245 220 229 234 257
229 252 294 295 297 283 258 251 256 250 252 247 240 230 230 238 242 242 240 235 226 229 231 231 234 225 220 226 222 230 227 229 231 232 245 259 255 236 244 225 230 249 248
311 305 305 302 298 295 284 255 245 251 254 254 252 243 231 231 242 246 246 240 233 226 232 233 229 227 230 225 219 222 232 233 238 234 247 252 254 224 236 239 234 243 218
310 305 302 298 293 284 278 281 263 248 249 250 247 247 240 234 235 240 244 238 240 228 233 237 233 225 225 226 223 211 214 233 239 241 249 245 239 226 226 231 237 242 249
303 295 297 287 297 301 293 285 276 266 258 253 250 245 248 240 234 235 239 243 240 233 228 234 234 230 226 223 216 224 224 227 233 204 223 238 238 229 237 233 237 241 247
299 296 298 291 285 290 299 286 285 274 267 264 263 253 244 244 240 233 234 238 243 235 236 231 233 230 225 223 224 225 227 237 238 241 229 231 238 236 233 239 237 251 260
291 300 298 302 301 286 293 293 291 286 277 273 257 259 255 249 243 237 233 237 242 242 241 233 230 234 227 228 218 225 227 222 236 243 245 239 242 251 248 256 255 262 272